Regional Weather Roundup
Issued by NWS

Home | Current Version | Previous Version | Text Only | Print | Product List | Glossary Off
Versions: 1 2 3 4 5 6 7 8 9 10 11 12 13 14 15 16 17 18 19 20 21 22 23 24 25 26 27 28 29 30 31 32 33 34 35 36 37 38 39 40 41 42 43 44 45 46 47 48 49 50

000
ASUS43 KMPX 281001
RWRMN
WEATHER ROUNDUP FOR MINNESOTA
NATIONAL WEATHER SERVICE TWIN CITIES/CHANHASSEN MN
500 AM CDT THU JUL 28 2016


NOTE: "FAIR" INDICATES FEW OR NO CLOUDS BELOW 12,000 FEET WITH NO
SIGNIFICANT WEATHER AND/OR OBSTRUCTIONS TO VISIBILITY. N/A MEANS
CURRENT SKY AND/OR WEATHER CONDITIONS ARE NOT AVAILABLE.

MNZ060>063-068>070-281100-
   Twin Cities Metro

CITY           SKY/WX    TMP DP  RH WIND       PRES   REMARKS
TWIN CITIES    CLOUDY    66  62  87 NE10      29.98F
ST PAUL        CLOUDY    66  63  90 N9        29.98F
CRYSTAL        CLOUDY    64  60  87 N10       29.98S
BLAINE         CLOUDY    64  64 100 N9        29.99S
LAKEVILLE      CLOUDY    64  64 100 N10       29.98S
EDEN PRAIRIE   CLOUDY    66  62  87 NE9       29.98S
LAKEVILLE      CLOUDY    64  64 100 N10       29.98S
SOUTH ST PAUL  CLOUDY    66  64  91 NE5       29.97F
LAKE ELMO      CLOUDY    64  63  94 N5        30.00S
$$
MNZ001>005-007-008-013>017-022>024-027-028-281100-
   Northwest Minnesota

CITY           SKY/WX    TMP DP  RH WIND       PRES   REMARKS
HALLOCK        CLEAR     55  54  94 NE7       30.12F
ROSEAU         CLEAR     54  48  82 NW3       30.13S
WARROAD        PTCLDY    61  55  82 NE3       30.13R
THIEF RVR FALL CLOUDY    59  55  87 NE10      30.10F
CROOKSTON      MOCLDY    61  57  88 E6        30.09S
FOSSTON        PTCLDY    57  55  94 N7        30.09S
DETROIT LAKES  PTCLDY    63  61  94 NE5       30.08S
MOORHEAD       CLOUDY    61  61 100 CALM      30.06S
PARK RAPIDS    MOCLDY    61  58  90 CALM      30.07S
MAHNOMEN       CLOUDY    62  60  94 NE5       30.07S
$$
MNZ006-009>011-018-025>026-281100-
   North Central Minnesota

CITY           SKY/WX    TMP DP  RH WIND       PRES   REMARKS
BAUDETTE       CLEAR     55  51  86 N5        30.11S
FLAG ISLAND    CLEAR     61  54  77 NE8       30.12R
INTL FALLS     CLEAR     58  53  84 CALM      30.10S
WASKISH        MOCLDY    57  54  88 NE5       30.10S
BIG FORK       CLEAR     52  52 100 CALM      30.09S
LONGVILLE      MOCLDY    57  57 100 CALM      30.06S FOG
GRAND RAPIDS   FOG       57  57 100 CALM      30.08F VSB 1/4
ORR            CLEAR     52  48  87 CALM      30.07S
COOK           CLEAR     50  50 100 CALM      30.09S
WALKER         PTSUNNY   57  57  99 CALM      30.07S
$$
MNZ012-019>021-037-281100-
   Northeast Minnesota

CITY           SKY/WX    TMP DP  RH WIND       PRES   REMARKS
DULUTH         PTCLDY    58  55  90 NE6       30.06S
ELY            FOG       54  54 100 SE5       30.09R VSB 1/2
HIBBING        FOG       50  50 100 NW3       30.08S VSB 1/4
EVELETH        CLEAR     53  52  97 CALM      30.09S FOG
DULUTH HARBOR  CLOUDY    64  59  82 NE9       30.05F
TWO HARBORS    CLEAR     61  55  82 N5        30.05S
SILVER BAY     CLEAR     52  50  93 CALM      30.06S
GRAND MARAIS     N/A     60  53  77 N6        30.06R
$$
MNZ029>031-032-039>041-046>048-054>057-064-281100-
   West Central Minnesota

CITY           SKY/WX    TMP DP  RH WIND       PRES   REMARKS
FERGUS FALLS   CLOUDY    64  64 100 E5        30.06S
WHEATON        MOCLDY    63  61  94 NW3       30.06S
MORRIS         MOCLDY    61  61 100 N3        30.03S
ALEXANDRIA     MOCLDY    63  61  93 NE5       30.07S
ELBOW LAKE     FAIR      64  63  94 NE6       30.06R
WADENA         CLOUDY    57  57 100 CALM      30.06S FOG
GLENWOOD       CLOUDY    63  61  94 NE8       30.06R
APPLETON       MOCLDY    63  61  94 NE3       30.02F
BENSON         MOCLDY    61  59  94 NE3       30.03S
ORTONVILLE     PTCLDY    63  59  88 CALM      30.03S
MADISON        CLOUDY    63  61  94 N5        30.02F
WILLMAR        FAIR      63  61  94 NE6       30.03F
$$
MNZ033>034-036-042>043-049>051-058-059-281100-
   Central Minnesota

CITY           SKY/WX    TMP DP  RH WIND       PRES   REMARKS
ST CLOUD       PTCLDY    58  58 100 NW3       30.03R
SAUK CENTRE    FAIR      61  59  92 CALM      30.05S
PAYNESVILLE    CLOUDY    61  61 100 NE7       30.04S
AITKIN         CLOUDY    57  52  82 CALM      30.04S VSB 1/4
PINE RIVER     CLOUDY    61  61 100 CALM      30.10R
BRAINERD       MOCLDY    60  59  96 NE5       30.06R
STAPLES        CLOUDY    59  57  94 N3        30.06S
LONG PRAIRIE   FAIR      59  59 100 NW3       30.06R
LITTLE FALLS   PTCLDY    59  55  88 CALM      30.05R
LITCHFIELD     CLOUDY    63  63 100 N8        30.03S
BUFFALO        CLOUDY    62  59  90 N6        30.02R
MAPLE LAKE     CLOUDY    63  61  96 N6        30.03R FOG
HUTCHINSON     CLOUDY    64  62  93 N6        30.02S
$$
MNZ037-044-045-052-053-281100-
   East Central Minnesota

CITY           SKY/WX    TMP DP  RH WIND       PRES   REMARKS
PRINCETON        N/A     61  57  88 NE5       30.02S
MORA           CLOUDY    55  54  94 CALM      30.04S
CAMBRIDGE      CLOUDY    63  55  77 N3        30.00S
RUSH CITY      LGT RAIN  59  58  94 N6        30.02S
MOOSE LAKE     PTCLDY    54  54 100 NE6       30.03S
HINCKLEY       FAIR      57  57 100 CALM      30.03S
CLOQUET        MOCLDY    57  55  94 CALM      30.06R
MCGREGOR       PTCLDY    57  55  94 N5        30.06S
$$
MNZ071>073-080-081-089-090-097-098-281100-
   Southwest Minnesota

CITY           SKY/WX    TMP DP  RH WIND       PRES   REMARKS
MONTEVIDEO     CLOUDY    61  61 100 NE3       30.04S
GRANITE FALLS  CLOUDY    63  62  96 N3        30.03S
CANBY          MOCLDY    62  60  91 NW6       30.04S
MARSHALL       CLOUDY    59  58  96 NW5       30.02F
REDWOOD FALLS  CLOUDY    63  61  93 NE5       30.00S
OLIVIA         CLOUDY    61  59  94 NE7       30.01S
PIPESTONE      PTCLDY    63  57  82 N3        30.03F
WINDOM         MOCLDY    63  61  94 CALM      30.01S
WORTHINGTON    CLEAR     59  57  93 NW7       30.02F
JACKSON        CLOUDY    63  61  94 N5        30.00F
TRACY          CLOUDY    62  60  95 NW6       30.02S
SLAYTON        PTCLDY    60  58  92 N6        30.03F
$$
MNZ065>067-074>077-082>085-091>093-281100-
   South Central Minnesota

CITY           SKY/WX    TMP DP  RH WIND       PRES   REMARKS
MANKATO        CLOUDY    64  61  88 N9        29.99S
NEW ULM        CLOUDY    64  63  94 N8        30.00S
ST JAMES       CLOUDY    61  59  94 N6        30.01S
FAIRMONT       CLOUDY    64  57  77 N8        29.99S
GLENCOE        CLOUDY    64  64  99 N6        30.00R
FARIBAULT      CLOUDY    66  64  94 N7        29.98S
OWATONNA       CLOUDY    66  63  88 N6        29.97S
WASECA         CLOUDY    64  63  94 N7        29.99S
ALBERT LEA     CLOUDY    64  64 100 N8        29.97S FOG
$$
MNZ078>079-086>088-094>096-281100-
   Southeast Minnesota

CITY           SKY/WX    TMP DP  RH WIND       PRES   REMARKS
ROCHESTER      LGT RAIN  66  65  96 N10       29.96S
RED WING       CLOUDY    68  64  88 N7        29.95S
STANTON        CLOUDY    66  63  88 N9        29.96S
DODGE CENTER   CLOUDY    64  63  94 N9        29.97S
WINONA         CLOUDY    70  66  88 N3        29.93S
AUSTIN         CLOUDY    64  63  94 NW6       29.96R
PRESTON        CLOUDY    66  64  91 N13       29.94S
$$
ABBREVIATIONS USED IN REMARKS
   TC - TEMPERATURES IN CELSIUS
  WCI - WIND CHILL INDEX
   HX - HEAT INDEX
  VSB - VISIBILITY
$$



USA.gov is the U.S. government's official web portal to all federal, state and local government web resources and services.